User: anonymous   Login
Location: Unspecified
(0.0000°N, 0.0000°E)
Time: 01:35:39
(UTC+02:00)
Language:

CZ-4B R/B - Orbit

View from above orbital plane
View from above orbital plane
View from above satellite
View from above satellite

Ground track
Ground track

The orbit data is extracted from the following two-line orbital elements,

1 33410U 08053C   15108.15147048  .00005756  00000-0  44256-3 0  9999
2 33410 097.6255 081.2818 0124268 325.9471 033.3820 14.96115575352406
Epoch (UTC): 18 April 2015 03:38:07
Eccentricity: 0.0124268
inclination: 97.6255°
perigee height: 492 km
apogee height: 665 km
right ascension of ascending node: 81.2818°
argument of perigee: 325.9471°
revolutions per day: 14.96115575
mean anomaly at epoch: 33.3820°
orbit number at epoch: 35240

The dashed part of the orbit path shows where the satellite is in the earth's shadow,  

DLR